Location: Akgöl Batakl???
(38.9482°N, 31.8837°E)
Time: 21:33:50
(UTC+00:00)

Cosmos 2322 Rocket - Pass Details

Date: 08 May 2026
Orbit: 831 x 850 km, 71.0° (Epoch: 10 June)

Event Time Altitude Azimuth Distance (km) Brightness Sun altitude
Rises 20:42:05 0° 341° (NNW) 3,401 6.5 -31.6°
Reaches altitude 10° 20:44:35 10° 346° (NNW) 2,466 5.5 -31.8°
Enters shadow 20:49:07 48° 27° (NNE) 1,096 2.9 -32.1°
